Home   Weather   Hall Beach   Past weeks
Flag for Canada

Past Weather in Hall Beach, Nunavut, Canada — Yesterday and Last 2 Weeks

Now
45 °F

Clear.


Feels Like: 39 °F
Forecast: 50 / 42 °F
Wind: 10 mph from Southwest

Location: Hall Beach

Current Time: Aug 19, 2019 at 2:16:00 am

Latest Report: Aug 19, 2019 at 1:00 am


Visibility: 9 mi

Pressure: 30.02 "Hg

Humidity: 87%

Dew Point: 41 °F

Location of Hall BeachLocation

Past Weather in Hall Beach — Graph

°F

Hall Beach Temperature Yesterday

Maximum temperature yesterday: 52 °F (at 10:00 am)
Minimum temperature yesterday: 39 °F (at 6:00 am)
Average temperature yesterday: 45 °F

High & Low Weather Summary for the Past Weeks

 TemperatureHumidityPressure
High61 °F (Aug 16, 2:00 pm)100% (Aug 4, 1:00 am)30.15 "Hg (Aug 4, 1:00 am)
Low37 °F (Aug 14, 11:37 pm)51% (Aug 16, 6:00 pm)29.82 "Hg (Aug 17, 1:00 am)
Average45 °F91%30.01 "Hg
* Reported Aug 4 1:00 am — Aug 19 1:00 am, Hall Beach. Weather by CustomWeather, © 2019

Note: Actual official high and low records may vary slightly from our data, if they occured in-between our weather recording intervals... More about our weather records

Advertising

Hall Beach Weather History for the Previous 24 Hours

Scroll right to see more
 ConditionsComfort  
Time TempWeatherWind HumidityBarometerVisibility
1:00 am
Mon, Aug 19
45 °FClear.10 mph87%30.02 "Hg9 mi
12:00 am45 °FClear.8 mph87%30.01 "Hg9 mi
11:00 pm
Sun, Aug 18
45 °FClear.10 mph87%30.02 "Hg9 mi
10:00 pm46 °FSunny.12 mph76%30.01 "Hg9 mi
9:00 pm48 °FSunny.12 mph76%30.02 "Hg9 mi
8:00 pm50 °FPassing clouds.12 mph67%30.01 "Hg15 mi
7:00 pm50 °FSunny.12 mph62%30.01 "Hg15 mi
6:00 pm48 °FSunny.12 mph66%30.01 "Hg15 mi
5:00 pm50 °FPassing clouds.13 mph62%30.01 "Hg15 mi
4:00 pm50 °FPassing clouds.12 mph67%30.00 "Hg15 mi
3:00 pm50 °FPassing clouds.14 mph76%30.00 "Hg15 mi
2:00 pm50 °FPassing clouds.10 mph71%29.99 "Hg15 mi
1:00 pm50 °FPassing clouds.8 mph71%29.99 "Hg15 mi
12:00 pm50 °FPassing clouds.7 mph71%29.99 "Hg15 mi
11:00 am50 °FPassing clouds.5 mph71%30.00 "Hg15 mi
10:00 am52 °FPassing clouds.3 mph62%29.99 "Hg15 mi
9:00 am48 °FPassing clouds.3 mph71%29.99 "Hg15 mi
8:00 am45 °FPassing clouds.3 mph100%30.00 "Hg15 mi
7:01 am43 °FFog.3 mphN/A29.98 "Hg6 mi
6:42 am43 °FFog.3 mph100%29.98 "Hg2 mi
6:38 am41 °FFog.3 mph100%29.98 "Hg1 mi
6:12 am41 °FFog.6 mph100%29.98 "Hg0 mi
6:00 am39 °FFog.6 mph100%29.98 "Hg0 mi
5:30 am41 °FFog.2 mph100%29.98 "Hg1 mi
5:20 am41 °FFog.3 mph100%29.98 "Hg1 mi
5:00 am41 °FLight rain. Fog.5 mph100%29.98 "Hg0 mi
4:39 am41 °FFog.5 mph100%29.98 "Hg1 mi
4:00 am41 °FClear.5 mph100%29.98 "Hg9 mi
3:00 am41 °FClear.6 mph100%29.97 "Hg9 mi
2:00 am41 °FClear.8 mph100%29.97 "Hg9 mi
Weather by CustomWeather, © 2019

See weather overview